Flag for Cote d'Ivoire (Ivory Coast) Weather past 2 weeks in Abidjan, Cote d'Ivoire (Ivory Coast)

Now
86 °F

Scattered clouds.


Feels Like: 97 °F
Forecast: 76 / 87 °F
Wind: 5 mph from West

Location: Abidjan Airport

Current Time: Dec 21, 2014 at 12:18:25 PM

Latest Report: Dec 21, 2014 at 12:00 PM


Visibility: 5 mi

Pressure: 29.89 "Hg

Humidity: 75%

Dew point: 77 °F

Location of AbidjanLocation

Historic Weather in Abidjan — Graph

°F

Abidjan temperature yesterday

Maximum temperature yesterday: 88 °F (at 11:00 AM)
Minimum temperature yesterday: 77 °F (at 7:00 AM)
Average temperature yesterday: 83 °F

Past Weeks' High & Low Weather Summary

 TemperatureHumidityPressure
High88 °F (Dec 9, 1:00 PM)100% (Dec 10, 4:00 AM)29.95 "Hg (Dec 10, 4:00 AM)
Low73 °F (Dec 12, 11:30 AM)62% (Dec 20, 11:30 AM)29.74 "Hg (Dec 9, 4:30 PM)
Average82 °F85%29.84 "Hg
* Reported Dec 6 11:00 AM — Dec 21 11:00 AM, Abidjan, Weather by CustomWeather, © 2014

Note: Actual official high and low records may vary slightly from our data, if they occured in-between our weather recording intervals... More about our weather records

Advertising

Abidjan weather history for previous 24 hours

 ConditionsComfort  
Time TempWeatherWind HumidityBarometerVisibility
11:00 AM
Dec 21
84 °FBroken clouds.6 mph74%29.89 "Hg5 mi
10:30 AM82 °FBroken clouds.8 mph84%29.92 "Hg4 mi
10:00 AM84 °FBroken clouds.2 mph74%29.92 "Hg4 mi
9:30 AM84 °FBroken clouds.2 mph74%29.92 "Hg4 mi
9:00 AM82 °FPassing clouds.2 mph79%29.92 "Hg4 mi
8:30 AM82 °FPassing clouds.2 mph74%29.89 "Hg4 mi
8:00 AM81 °FPassing clouds.2 mph79%29.89 "Hg4 mi
7:30 AM79 °FPassing clouds.1 mph89%29.89 "Hg4 mi
7:00 AM77 °FScattered clouds.No wind94%29.86 "Hg4 mi
6:30 AM77 °FScattered clouds.2 mph89%29.86 "Hg5 mi
6:00 AM77 °FThunderstorms. Passing clouds.1 mph89%29.83 "Hg5 mi
5:30 AM77 °FThunderstorms. Passing clouds.2 mph89%29.83 "Hg5 mi
5:00 AM79 °FThunderstorms. Passing clouds.5 mph84%29.83 "Hg5 mi
4:30 AM81 °FThunderstorms. Passing clouds.3 mph84%29.83 "Hg5 mi
4:00 AM81 °FThunderstorms. Passing clouds.5 mph79%29.86 "Hg5 mi
3:30 AM79 °FThunderstorms. Passing clouds.No wind94%29.83 "Hg5 mi
3:00 AM79 °FThunderstorms. Passing clouds.1 mph94%29.86 "Hg5 mi
2:30 AM81 °FPassing clouds.No wind89%29.86 "Hg5 mi
2:00 AM81 °FPassing clouds.1 mph89%29.89 "Hg5 mi
1:30 AM81 °FPartly cloudy.2 mph89%29.89 "Hg5 mi
1:00 AM81 °FPassing clouds.5 mph89%29.92 "Hg5 mi
12:30 AM81 °FPassing clouds.5 mph89%29.92 "Hg5 mi
12:00 AM82 °FPassing clouds.6 mph84%29.92 "Hg5 mi
11:30 PM
Dec 20
81 °FPassing clouds.6 mph89%29.92 "Hg5 mi
11:00 PM82 °FPassing clouds.6 mph84%29.92 "Hg5 mi
10:30 PM82 °FPassing clouds.5 mph84%29.95 "Hg5 mi
10:00 PM82 °FPassing clouds.5 mph84%29.95 "Hg5 mi
9:30 PM82 °FPassing clouds.6 mph84%29.95 "Hg5 mi
9:00 PM82 °FThunderstorms. Passing clouds.6 mph84%29.89 "Hg5 mi
8:30 PM82 °FThunderstorms. Passing clouds.7 mph84%29.89 "Hg5 mi
8:00 PM82 °FThunderstorms. Passing clouds.6 mph84%29.86 "Hg5 mi
7:30 PM82 °FThunderstorms. Passing clouds.8 mph84%29.86 "Hg5 mi
7:00 PM82 °FThunderstorms. Passing clouds.7 mph84%29.83 "Hg5 mi
6:30 PM82 °FPassing clouds.8 mph84%29.83 "Hg5 mi
6:00 PM84 °FPassing clouds.9 mph79%29.83 "Hg5 mi
5:00 PM86 °FScattered clouds.12 mph75%29.80 "Hg5 mi
4:30 PM86 °FScattered clouds.10 mph75%29.80 "Hg5 mi
4:00 PM86 °FPassing clouds.12 mph75%29.80 "Hg5 mi
3:30 PM86 °FPassing clouds.13 mph70%29.80 "Hg5 mi
3:00 PM88 °FPassing clouds.10 mph70%29.80 "Hg5 mi
2:30 PM88 °FScattered clouds.10 mph70%29.83 "Hg5 mi
2:00 PM86 °FScattered clouds.12 mph70%29.83 "Hg5 mi
1:30 PM88 °FScattered clouds.12 mph66%29.83 "Hg4 mi
1:00 PM88 °FScattered clouds.10 mph66%29.86 "Hg4 mi
12:30 PM88 °FScattered clouds.10 mph66%29.86 "Hg4 mi
12:00 PM88 °FScattered clouds.8 mph66%29.92 "Hg5 mi
Weather by CustomWeather, © 2014

See weather overviewHow to use our weather pages